TimeCST,TemperatureF,Dew PointF,Humidity,Sea Level PressureIn,VisibilityMPH,Wind Direction,Wind SpeedMPH,Gust SpeedMPH,PrecipitationIn,Events,Conditions,WindDirDegrees,DateUTC
12:58 AM,38.3,21.4,51,30.25,10.0,SSE,5.8,-,N/A,,Overcast,160,2013-02-17 06:58:00
1:58 AM,37.9,22.8,55,30.24,10.0,SSE,3.5,-,N/A,,Overcast,160,2013-02-17 07:58:00
2:58 AM,37.8,23.2,56,30.23,10.0,South,3.5,-,N/A,,Overcast,170,2013-02-17 08:58:00
3:58 AM,37.6,21.4,52,30.22,10.0,South,5.8,-,N/A,,Overcast,190,2013-02-17 09:58:00
4:58 AM,37.0,20.8,52,30.23,10.0,South,9.2,-,N/A,,Overcast,190,2013-02-17 10:58:00
5:58 AM,35.4,20.5,55,30.23,10.0,South,6.9,-,N/A,,Partly Cloudy,180,2013-02-17 11:58:00
6:58 AM,34.2,20.8,58,30.23,10.0,SSW,4.6,-,N/A,,Scattered Clouds,200,2013-02-17 12:58:00
7:58 AM,36.1,21.2,55,30.24,10.0,South,8.1,-,N/A,,Mostly Cloudy,190,2013-02-17 13:58:00
8:58 AM,37.8,22.5,54,30.25,10.0,South,8.1,-,N/A,,Overcast,190,2013-02-17 14:58:00
9:58 AM,41.5,23.4,49,30.23,10.0,South,5.8,-,N/A,,Overcast,180,2013-02-17 15:58:00
10:58 AM,46.9,24.1,41,30.21,10.0,Variable,6.9,18.4,N/A,,Scattered Clouds,0,2013-02-17 16:58:00
11:58 AM,50.5,27.7,41,30.17,10.0,South,8.1,-,N/A,,Clear,180,2013-02-17 17:58:00
12:58 PM,54.7,29.1,38,30.12,10.0,SE,9.2,-,N/A,,Clear,130,2013-02-17 18:58:00
1:58 PM,56.7,31.3,38,30.08,10.0,ESE,9.2,-,N/A,,Clear,120,2013-02-17 19:58:00
2:58 PM,60.4,30.4,32,30.05,10.0,SE,8.1,-,N/A,,Clear,130,2013-02-17 20:58:00
3:58 PM,61.9,32.5,33,30.04,10.0,SE,10.4,-,N/A,,Clear,140,2013-02-17 21:58:00
4:58 PM,61.5,34.0,36,30.03,10.0,SE,6.9,-,N/A,,Clear,140,2013-02-17 22:58:00
5:58 PM,57.7,34.7,42,30.02,10.0,ESE,3.5,-,N/A,,Clear,120,2013-02-17 23:58:00
6:58 PM,54.0,37.9,55,30.02,10.0,SE,4.6,-,N/A,,Clear,130,2013-02-18 00:58:00
7:58 PM,52.3,38.8,60,30.04,10.0,SE,8.1,-,N/A,,Clear,140,2013-02-18 01:58:00
8:58 PM,50.2,38.8,65,30.04,10.0,SSE,6.9,-,N/A,,Clear,150,2013-02-18 02:58:00
9:58 PM,48.6,38.3,68,30.02,10.0,SE,5.8,-,N/A,,Clear,140,2013-02-18 03:58:00
11:59 PM,45.9,37.4,72,30.01,10.0,Variable,3.5,-,N/A,,Clear,0,2013-02-18 05:59:00